星链-37749(STARLINK-37749)

导读

STARLINK-37749(NORAD编号69651)是美国太空探索技术公司(SpaceX)星链低轨宽带通信星座的组网卫星,隶属于星链V1.0技术序列。作为SpaceX巨型低轨互联网星座的组成单元,它运行于近地轨道,搭载Ku/Ka波段通信载荷并具备光学星间链路能力,主要承担全球宽带互联网接入任务,可为偏远地区、海洋及空域场景提供高速低延迟的网络传输服务,设计寿命约5-7年,寿命末期将主动离轨并在大气层中烧毁,目前处于在轨工作状态。

Basic Information
目录编号:
69651
目录名称:
STARLINK-37749
国际标识:
2026-143C
轨道中心:
EARTH
卫星名称:
星链-37749
卫星全名:
星链-37749(STARLINK-37749)
卫星状态:
在轨 (已飞行75 天)
发射日期:
2026-06-21 UTC
国别 :
美国 (US)
星等 :
--
Orbit Information
数据来源 国际轨道数据
星历时间: 2026-09-04T10:48:44+0800
12小时前
查看轨道信息
半长轴: 6843.657km
偏心率: 0.000148
轨道倾角: 97.285°
近地点辐角 66.342°
升交点赤经 290.568°
平近点角 293.798°
近地点: 464.507km
远地点: 466.533km
周期: 93.906分钟
每日圈数: 15.334529
Detailed Information
固有亮度:
5
最大亮度:
2.5
卫星平台:
Starlink V1.0
覆盖范围:
全球
运营商:
太空探索技术公司
运营商所在国:
美国
制造商(研发单位):
太空探索技术公司
制造商所在国:
美国
使用方式:
暂无
Satellite Introduction
Starlink 计划是 SpaceX 推出的全球卫星互联网项目,通过发射低轨道卫星,为全球尤其是偏远地区提供高速、低延迟的互联网服务。自 2019 年起,Starlink 已部署数千颗卫星,旨在缩小全球数字鸿沟,推动互联网普及。该项目还为军事、航空等行业提供通信支持,带来广泛经济效益。
2D Orbit Map
3D Orbit Map
Orbit Altitude Analysis Chart
Orbit Inclination Analysis Chart
Orbit Comprehensive Analysis Chart
View Comprehensive Chart
Conjunction Data List
Event ID Objects TCA Miss Dist (km) Collision Risk Probability Collision Risk Index (CRI) Action
CDM_260904-212205-299106-965121
2026-09-04T
21:22:54+0000
2.116 km
极远距离
1.96622E-6 低风险 0.41
CDM_260905-213905-926106-965121
2026-09-05T
21:39:55+0000
2.812 km
极远距离
1.387506E-6 低风险 0.38
CDM_260906-011405-175606-965121
2026-09-06T
01:14:26+0000
2.617 km
极远距离
1.351859E-6 低风险 0.38
CDM_260905-220606-275906-965121
2026-09-05T
22:06:36+0000
2.898 km
极远距离
1.182515E-6 低风险 0.36
CDM_260905-153204-868506-965122
2026-09-05T
15:32:24+0000
2.892 km
极远距离
8.436276E-7 极低风险 0.34
CDM_260907-003504-738106-965121
2026-09-07T
00:35:42+0000
2.955 km
极远距离
8.358558E-7 极低风险 0.33